Volver al catálogo

STARLINK-34721

ActivoComunicacionesVLEO
NORAD 65039·PAYLOAD·🇺🇸 United States

Lanzado Jul 30, 2025 desde Cape Canaveral Space Force Station

Loading…

Próximos Pases (próximas 24 horas)

TLE

ActualizadoSource: CelesTrak SupGP

Época: Sep 15, 2026, 02:16 UTC

1 65039C 25161AA  26258.09493056  .00031888  00000+0  94229-3 0  2581
2 65039  53.1563 132.6266 0001248  86.8105 288.3849 15.34369322    18

Sigue STARLINK-34721 en tiempo real con AllMySat

Download on the App Store